Date String (YYYY-MM-DD hh:mm:ss) UTC,Instrument flags,absolute air pressure of the measurement (hPa),sample flow rate (lpm),inlet stack bypass flow (lpm),air temperature of the measurement (°C),ambient temperature measured by the external sensor (°C),aerosol sample conditioner tube jacket temperature (°C),OPC LED temperature (°C),internal box temperature (°C),relative humidity of the measurement (%),span deviation,mass concentration of particles derived from Lorenz-Mie calculation of OPC scattering (μg/m³),mass concentration of particles derived from Lorenz-Mie calculation of OPC scattering (μg/m³),mass concentration of particles derived from Lorenz-Mie calculation of OPC scattering (μg/m³)
DateTimeUTC,F1_M11,P_M11,Q1_M11,Q2_M11,T1_M11,T2_M11,T3_M11,T4_M11,T5_M11,U1_M11,ZSPAN_M11,X2_M11,X0_M11,X1_M11
2024-03-06 10:00:00,SystemResetWarning,0821.8,4.99,000.00,018.3,017.5,000.0,026.9,020.0,14.4,0000.0,0003.41,0009.30,0002.43
2024-03-06 10:01:00,SystemResetWarning,0821.9,5.00,000.00,018.3,017.5,000.0,026.9,020.0,14.4,0000.0,0003.28,0008.95,0002.25
2024-03-06 10:02:00,SystemResetWarning,0821.9,5.00,000.00,018.3,017.5,000.0,026.9,020.0,15.0,0000.0,0003.08,0008.90,0002.03
2024-03-06 10:03:00,SystemResetWarning,0821.8,5.00,000.00,018.3,017.5,000.0,026.9,020.0,14.8,0000.0,0002.77,0008.50,0001.81
2024-03-06 10:04:00,SystemResetWarning,0821.8,4.99,000.00,018.3,017.5,000.0,026.9,020.0,15.0,0000.0,0002.49,0008.24,0001.61
2024-03-06 10:05:00,SystemResetWarning,0821.8,5.00,000.00,018.3,017.5,000.0,026.9,020.0,14.3,0000.0,0002.27,0007.86,0001.42
2024-03-06 10:06:00,SystemResetWarning,0821.9,5.00,000.00,018.3,017.5,000.0,026.9,020.0,13.7,0000.0,0002.09,0007.47,0001.29
2024-03-06 10:07:00,SystemResetWarning,0821.9,5.00,000.00,018.3,017.5,000.0,026.9,020.0,14.0,0000.0,0001.99,0006.94,0001.20
2024-03-06 10:08:00,SystemResetWarning,0821.8,5.00,000.00,018.3,017.5,000.0,026.9,020.0,16.0,0000.0,0001.95,0006.72,0001.17
2024-03-06 10:09:00,SystemResetWarning,0821.8,5.00,000.00,018.3,017.5,000.0,026.9,020.0,17.0,0000.0,0001.82,0006.39,0001.08
2024-03-06 10:10:00,SystemResetWarning,0821.7,5.00,000.00,018.3,017.4,000.0,026.9,020.0,17.3,0000.0,0001.82,0005.34,0001.06
2024-03-06 10:11:00,SystemResetWarning,0821.7,5.00,000.00,018.3,017.4,000.0,026.9,020.0,17.5,0000.0,0001.82,0005.31,0001.07
2024-03-06 10:12:00,SystemResetWarning,0821.7,5.01,000.00,018.4,017.9,000.0,027.0,020.3,17.5,0000.0,0001.79,0004.72,0001.06
2024-03-06 10:13:00,SystemResetWarning,0821.9,4.99,000.00,018.6,018.7,000.0,027.1,020.8,17.3,0000.0,0001.74,0003.79,0001.05
2024-03-06 10:14:00,SystemResetWarning,0822.0,4.98,000.00,018.7,019.0,000.0,027.1,020.9,17.1,0000.0,0001.76,0003.73,0001.07
2024-03-06 10:15:00,SystemResetWarning,0821.9,5.00,000.00,018.8,018.9,000.0,027.0,020.9,17.1,0000.0,0001.82,0003.80,0001.10
2024-03-06 10:16:00,SystemResetWarning,0821.8,5.02,000.00,018.8,018.8,000.0,027.1,020.8,17.2,0000.0,0001.78,0003.66,0001.10
2024-03-06 10:17:00,SystemResetWarning,0821.7,5.00,000.00,018.8,018.6,000.0,027.1,020.7,17.1,0000.0,0001.85,0003.85,0001.09
2024-03-06 10:18:00,SystemResetWarning,0821.7,5.00,000.00,018.8,018.5,000.0,027.1,020.6,17.1,0000.0,0001.88,0003.97,0001.08
2024-03-06 10:19:00,SystemResetWarning,0821.7,4.99,000.00,018.8,018.4,000.0,027.1,020.5,17.2,0000.0,0001.90,0003.88,0001.08
2024-03-06 10:20:00,SystemResetWarning,0821.7,5.00,000.00,018.8,018.3,000.0,027.1,020.5,17.2,0000.0,0001.95,0004.46,0001.08
2024-03-06 10:21:00,SystemResetWarning,0821.6,5.02,000.00,018.7,018.3,000.0,027.1,020.5,17.2,0000.0,0001.98,0004.50,0001.09
2024-03-06 10:22:00,SystemResetWarning,0821.6,5.01,000.00,018.7,018.2,000.0,027.1,020.4,17.2,0000.0,0001.99,0004.52,0001.08
2024-03-06 10:23:00,SystemResetWarning,0821.6,4.99,000.00,018.7,018.1,000.0,027.1,020.4,17.3,0000.0,0001.98,0004.51,0001.07
2024-03-06 10:24:00,SystemResetWarning,0821.6,4.99,000.00,018.7,018.1,000.0,027.1,020.4,17.3,0000.0,0002.11,0004.83,0001.12
2024-03-06 10:25:00,SystemResetWarning,0821.6,5.01,000.00,018.7,018.1,000.0,027.1,020.3,17.3,0000.0,0002.39,0006.17,0001.27
2024-03-06 10:26:00,SystemResetWarning,0821.6,5.00,000.00,018.7,018.0,000.0,027.1,020.3,17.4,0000.0,0002.70,0007.34,0001.47
2024-03-06 10:27:00,SystemResetWarning,0821.8,5.01,000.00,018.7,018.0,000.0,027.1,020.3,17.4,0000.0,0003.00,0007.76,0001.70
2024-03-06 10:28:00,SystemResetWarning,0821.7,5.00,000.00,018.7,018.0,000.0,027.1,020.3,17.3,0000.0,0003.21,0008.02,0001.92
2024-03-06 10:29:00,SystemResetWarning,0821.6,4.99,000.00,018.6,018.0,000.0,027.1,020.3,17.3,0000.0,0003.39,0008.71,0002.13
2024-03-06 10:30:00,SystemResetWarning,0821.6,4.99,000.00,018.6,017.9,000.0,027.0,020.2,17.4,0000.0,0003.58,0010.09,0002.32
2024-03-06 10:31:00,SystemResetWarning,0821.6,5.00,000.00,018.6,017.9,000.0,027.0,020.2,17.4,0000.0,0003.73,0011.22,0002.51
2024-03-06 10:32:00,SystemResetWarning,0821.9,5.00,000.00,018.6,017.9,000.0,027.0,020.2,17.3,0000.0,0003.92,0012.81,0002.70
2024-03-06 10:33:00,SystemResetWarning,0821.9,5.01,000.00,018.6,017.9,000.0,027.0,020.2,17.3,0000.0,0004.12,0013.71,0002.91
2024-03-06 10:34:00,SystemResetWarning,0821.7,5.00,000.00,018.6,017.8,000.0,027.0,020.2,17.3,0000.0,0004.34,0015.33,0003.10
2024-03-06 10:35:00,SystemResetWarning,0821.7,5.00,000.00,018.6,017.8,000.0,027.0,020.2,17.2,0000.0,0004.52,0015.97,0003.20
2024-03-06 10:36:00,SystemResetWarning,0821.8,5.00,000.00,018.5,017.8,000.0,027.0,020.1,17.1,0000.0,0004.64,0016.03,0003.24
2024-03-06 10:37:00,SystemResetWarning,0821.9,5.00,000.00,018.5,017.8,000.0,027.0,020.1,17.2,0000.0,0004.64,0016.29,0003.22
2024-03-06 10:38:00,SystemResetWarning,0822.0,5.00,000.00,018.5,017.8,000.0,027.0,020.1,17.2,0000.0,0004.64,0016.16,0003.21
2024-03-06 10:39:00,SystemResetWarning,0822.0,5.01,000.00,018.5,017.8,000.0,026.9,020.1,17.3,0000.0,0004.62,0016.38,0003.22
2024-03-06 10:40:00,SystemResetWarning,0822.0,5.00,000.00,018.5,017.7,000.0,026.9,020.1,17.4,0000.0,0004.57,0016.17,0003.23
2024-03-06 10:41:00,SystemResetWarning,0822.0,5.00,000.00,018.5,017.7,000.0,026.9,020.0,17.5,0000.0,0004.52,0015.27,0003.25
2024-03-06 10:42:00,SystemResetWarning,0821.8,5.00,000.00,018.4,017.7,000.0,026.9,020.1,17.5,0000.0,0004.54,0014.67,0003.26
2024-03-06 10:43:00,SystemResetWarning,0821.9,5.00,000.00,018.4,017.7,000.0,026.9,020.0,17.5,0000.0,0004.53,0014.08,0003.28
2024-03-06 10:44:00,SystemResetWarning,0821.6,5.00,000.00,018.4,017.7,000.0,026.9,020.0,17.5,0000.0,0004.49,0013.63,0003.29
2024-03-06 10:45:00,SystemResetWarning,0821.6,4.99,000.00,018.4,017.7,000.0,026.9,020.0,17.5,0000.0,0004.46,0012.75,0003.31
2024-03-06 10:46:00,SystemResetWarning,0821.7,4.99,000.00,018.4,017.6,000.0,026.9,020.0,17.5,0000.0,0004.41,0012.50,0003.33
2024-03-06 10:47:00,SystemResetWarning,0821.8,5.00,000.00,018.4,017.6,000.0,026.9,020.0,17.4,0000.0,0004.34,0012.31,0003.33
2024-03-06 10:48:00,SystemResetWarning,0821.8,5.01,000.00,018.4,017.6,000.0,026.9,020.0,17.4,0000.0,0004.27,0011.67,0003.33
2024-03-06 10:49:00,SystemResetWarning,0821.7,5.00,000.00,018.4,017.6,000.0,026.9,020.0,17.4,0000.0,0004.23,0011.82,0003.33
2024-03-06 10:50:00,SystemResetWarning,0821.7,4.99,000.00,018.4,017.6,000.0,026.9,020.0,17.4,0000.0,0004.21,0011.95,0003.32
2024-03-06 10:51:00,SystemResetWarning,0821.8,5.00,000.00,018.4,017.6,000.0,026.9,020.0,17.6,0000.0,0004.23,0012.81,0003.31
2024-03-06 10:52:00,SystemResetWarning,0821.7,5.01,000.00,018.4,017.6,000.0,026.9,020.0,17.8,0000.0,0004.26,0012.71,0003.30
2024-03-06 10:53:00,SystemResetWarning,0821.7,5.01,000.00,018.4,017.6,000.0,026.9,020.0,17.9,0000.0,0004.20,0012.30,0003.29
2024-03-06 10:54:00,SystemResetWarning,0821.7,5.00,000.00,018.4,017.6,000.0,026.9,020.0,17.9,0000.0,0004.17,0012.75,0003.27
2024-03-06 10:55:00,SystemResetWarning,0821.6,5.00,000.00,018.4,017.6,000.0,026.9,020.0,18.0,0000.0,0004.18,0012.85,0003.25
2024-03-06 10:56:00,SystemResetWarning,0821.6,4.99,000.00,018.4,017.6,000.0,026.8,020.0,18.1,0000.0,0004.17,0012.51,0003.24
2024-03-06 10:57:00,SystemResetWarning,0821.6,4.99,000.00,018.4,017.6,000.0,026.8,020.0,18.1,0000.0,0004.18,0012.33,0003.24
2024-03-06 10:58:00,SystemResetWarning,0821.6,4.99,000.00,018.3,017.6,000.0,026.8,020.0,18.1,0000.0,0004.14,0011.94,0003.24
2024-03-06 10:59:00,SystemResetWarning,0821.6,5.00,000.00,018.4,017.6,000.0,026.8,020.0,18.1,0000.0,0004.18,0011.94,0003.25
